Location: Central Falls
(41.8900°N, 71.3929°W)
Time: 04:23:26
(UTC+00:00)

Tiros 1 - Pass Details

Date: 15 December 2023
Orbit: 625 x 658 km, 48.4° (Epoch: 01 March)

Event Time Altitude Azimuth Distance (km) Brightness Sun altitude
Rises 11:49:43 0° 292° (WNW) 2,987 - -3.5°
Exits shadow 11:50:40 - 289° (WNW) 2,638 9.6 -3.3°
Reaches altitude 10° 11:52:18 10° 281° (W) 2,073 9.2 -3.1°
Maximum altitude 11:56:24 29° 222° (SW) 1,212 8.5 -2.4°
Drops below altitude 10° 12:00:28 10° 163° (SSE) 2,058 10.5 -1.7°
Sets 12:03:02 0° 152° (SSE) 2,963 11.7 -1.3°
